ECHOSTAR 11

Last updated on Wed Sep 09 2026 00:02:58 GMT+0000 (Coordinated Universal Time)

1 33207U 08035A 26251.49466216 -.00000079 00000+0 00000+0 0 9990 2 33207 1.2143 83.0705 0002507 105.0014 227.7617 1.00271499 52042
UTC large
Height (km)
Speed (km/s)
/
Latitude / Longitude
Inclination (degrees)
Orbital Period (minutes)
Azimuth
Elevation
Range (km)
Doppler Factor

Next 0 passes for location: London (51.5072 / 0.1276)

No passes found over London.